Regional Weather Roundup
Issued by NWS

Home | Current Version | Previous Version | Graphics & Text | Print | Product List | Glossary Off
Versions: 1 2 3 4 5 6 7 8 9 10 11 12 13 14 15 16 17 18 19 20 21 22 23 24 25 26 27 28 29 30 31 32 33 34 35 36 37 38 39 40 41 42 43 44 45 46 47 48 49 50

388
ASUS43 KDMX 121708
RWRIA

WEATHER ROUNDUP FOR IOWA
NATIONAL WEATHER SERVICE DES MOINES IA
1100 AM CST FRI FEB 12 2016

NOTE: "FAIR" INDICATES FEW OR NO CLOUDS BELOW 12,000 FEET WITH NO
SIGNIFICANT WEATHER AND/OR OBSTRUCTIONS TO VISIBILITY.

* - THESE STATIONS ARE NOT NWS STATIONS...THUS NOT UNDER NWS
QUALITY CONTROL.  THEY ALSO DO NOT REPORT WEATHER SUCH
AS PRECIPITATION OR FOG.

IAZ001>003-012>014-020>022-031>034-043>046-121800-
   NORTHWEST IOWA

CITY           SKY/WX    TMP DP  RH WIND       PRES   REMARKS
CARROLL *      CLOUDY    14   9  79 N26G32    30.46R HAZE    WCI  -6
CHEROKEE *     SUNNY     14   7  73 N14G23    30.49R WCI  -1
DENISON *      MOSUNNY   16   9  73 N16G22    30.46R WCI   0
LE MARS *      CLOUDY    16  10  79 N17       30.54R WCI   0
ORANGE CITY *  LGT SNOW  12   7  79 N15G24    30.49R WCI  -4
SHELDON *      MOSUNNY   10   5  79 N21       30.48R WCI  -9
SIOUX CITY     MOSUNNY   21  11  65 N15       30.53R WCI   8
SPENCER        SUNNY     11   0  61 N24G32    30.47R BLWGSNOWWCI  -9
STORM LAKE *   MOSUNNY   12   7  79 N21       30.46R WCI  -6
$$

IAZ055>058-069>071-079>083-090>094-121800-
   SOUTHWEST IOWA

CITY           SKY/WX    TMP DP  RH WIND       PRES   REMARKS
ATLANTIC *     SUNNY     19   9  63 N20       30.47R WCI   4
AUDUBON *      PTSUNNY   18  10  73 N20       30.46R HAZE    WCI   1
CLARINDA *     PTSUNNY   27  14  59 NW18      30.48R WCI  13
COUNCIL BLFS * MOSUNNY   23  14  68 N18       30.47R WCI   9
CRESTON *      FLURRIES  21  12  68 N17G25    30.44R WCI   7
HARLAN  *      SUNNY     19  10  68 N15       30.51R WCI   5
LAMONI         PTSUNNY   24  13  62 N15       30.40R WCI  11
RED OAK *      CLOUDY    25  14  63 N20G25    30.48R WCI  11
SHENANDOAH *   CLOUDY    27  16  63 N18       30.49R WCI  13
$$

IAZ047>049-059>061-072>074-084-121800-
   CENTRAL IOWA

CITY           SKY/WX    TMP DP  RH WIND       PRES   REMARKS
AMES           MOSUNNY   15   6  67 N25G36    30.42R BLWGSNOWWCI  -4
ANKENY *       CLOUDY    18   9  68 N22G28    30.44R WCI   0
BOONE *        MOSUNNY   14   5  67 N24G32    30.41R WCI  -5
CHARITON *     CLOUDY    21  14  73 N16G22    30.39R WCI   7
DES MOINES     MOSUNNY   19   7  59 N21G32    30.42R WCI   3
GRINNELL*      SUNNY     18  10  73 NW25      30.38R WCI  -1
KNOXVILLE *    PTSUNNY   19  10  68 N24G30    30.38R WCI   2
MARSHALLTOWN   SUNNY     16   6  65 NW24      30.39R WCI  -2
NEWTON *       FLURRIES  18   9  68 N26G33    30.38R WCI  -1
PELLA *        MOSUNNY   21  10  63 N15G25    30.41R WCI   8
$$

IAZ004>006-015-016-023>025-035-036-121800-
   NORTH CENTRAL IOWA

CITY           SKY/WX    TMP DP  RH WIND       PRES   REMARKS
ALGONA *       SUNNY     12   3  67 N18G29    30.43R WCI  -5
CLARION *      MOSUNNY   12   1  62 N25G31    30.41R WCI  -8
ESTHERVILLE    SUNNY      9   0  67 NW23      30.45R WCI -11
FORT DODGE *   SUNNY     14   3  62 N18G24    30.45R WCI  -3
MASON CITY     SUNNY     11   3  70 NW24      30.39R WCI  -9
FOREST CITY *  SUNNY     12   1  62 NW23G29   30.39R WCI  -7
WEBSTER CITY * MOSUNNY   14   7  73 NW25      30.41R WCI  -5
IOWA FALLS *     N/A     14   9  79 NW24      30.41R HAZE    WCI  -5
$$

IAZ007>011-017>019-026>030-037>042-050>054-066-121800-
   NORTHEAST IOWA

CITY           SKY/WX    TMP DP  RH WIND       PRES   REMARKS
CEDAR RAPIDS   CLOUDY    19  11  70 NW22G31   30.32R WCI   2
CHARLES CITY * SUNNY     12   3  67 NW24      30.36R WCI  -8
CLINTON *      PTSUNNY   23  12  62 NW21G28   30.27R WCI   8
DECORAH *      MOSUNNY   12   1  62 N23       30.28R WCI  -7
DUBUQUE        MOSUNNY   17   7  64 NW22G28   30.26R WCI   0
MONTICELLO *   PTSUNNY   18   7  62 NW23G30   30.30R WCI   0
OELWEIN *      PTSUNNY   14   7  73 NW21G29   30.33R WCI  -4
WATERLOO       SUNNY     15   5  64 NW24      30.36R WCI  -4
$$

IAZ064-065-067-068-078-121800-
   EAST CENTRAL IOWA

CITY           SKY/WX    TMP DP  RH WIND       PRES   REMARKS
DAVENPORT      PTSUNNY   22  10  60 NW21G30   30.28R WCI   6
IOWA CITY      CLOUDY    22  11  62 NW20G25   30.35R WCI   7
MT. PLEASANT * FLURRIES  25  16  68 NW18G28   30.34R WCI  11
MUSCATINE *    CLOUDY    25  12  58 NW20G28   30.34R WCI  11
QUAD CITIES    PTSUNNY   23  10  57 NW18      30.28R WCI   9
$$

IAZ062-063-075>077-085>089-095>099-121800-
   SOUTHEAST IOWA

CITY           SKY/WX    TMP DP  RH WIND       PRES   REMARKS
BURLINGTON     CLOUDY    22  14  71 NW17G28   30.31R WCI   8
FAIRFIELD *    CLOUDY    21  12  68 NW22      30.35R WCI   5
FORT MADISON * CLOUDY    21  16  79 NW20G28   30.32R WCI   6
KEOKUK *       FLURRIES  23  16  74 NW15G24   30.33R WCI  10
OSKALOOSA *    FLURRIES  21  14  73 NW23G29   30.38R WCI   5
CENTERVILLE *  MOSUNNY   23  14  68 NW21G29   30.38R WCI   8
OTTUMWA        CLOUDY    22  15  75 NW22G30   30.37R WCI   6
WASHINGTON *   CLOUDY    21  14  73 NW23      30.35S WCI   5
$$

ABBREVIATIONS USED IN REMARKS
   TC - TEMPERATURES IN CELSIUS
  WCI - WIND CHILL INDEX
   HX - HEAT INDEX
  VSB - VISIBILITY
$$





USA.gov is the U.S. government's official web portal to all federal, state and local government web resources and services.